TimeCST,TemperatureF,Dew PointF,Humidity,Sea Level PressureIn,VisibilityMPH,Wind Direction,Wind SpeedMPH,Gust SpeedMPH,PrecipitationIn,Events,Conditions,WindDirDegrees,DateUTC
12:15 AM,0.3,-5.4,77,30.43,10.0,NNW,8.1,-,N/A,,Clear,340,2014-02-10 06:15:00
12:35 AM,-0.8,-6.0,79,30.44,10.0,NNW,5.8,-,N/A,,Clear,330,2014-02-10 06:35:00
12:55 AM,0.3,-4.9,79,30.45,10.0,NNW,3.5,-,N/A,,Clear,330,2014-02-10 06:55:00
1:15 AM,-0.4,-5.8,78,30.44,10.0,NNW,3.5,-,N/A,,Clear,330,2014-02-10 07:15:00
1:35 AM,-1.3,-6.7,78,30.44,10.0,NNW,4.6,-,N/A,,Clear,330,2014-02-10 07:35:00
1:55 AM,-0.8,-6.0,79,30.46,10.0,NW,4.6,-,N/A,,Clear,310,2014-02-10 07:55:00
2:15 AM,-0.4,-5.8,78,30.47,10.0,NW,5.8,-,N/A,,Clear,320,2014-02-10 08:15:00
2:35 AM,0.3,-5.6,76,30.48,10.0,NW,4.6,-,N/A,,Clear,310,2014-02-10 08:35:00
2:55 AM,-0.9,-6.2,79,30.48,10.0,Calm,Calm,-,N/A,,Clear,0,2014-02-10 08:55:00
3:15 AM,-2.0,-7.4,78,30.48,10.0,Calm,Calm,-,N/A,,Clear,0,2014-02-10 09:15:00
3:35 AM,-1.1,-6.0,80,30.47,10.0,North,3.5,-,N/A,,Clear,360,2014-02-10 09:35:00
3:55 AM,-6.5,-12.3,76,30.46,10.0,North,5.8,-,N/A,,Clear,360,2014-02-10 09:55:00
4:15 AM,-7.4,-12.8,77,30.47,10.0,North,5.8,-,N/A,,Clear,350,2014-02-10 10:15:00
4:35 AM,-6.5,-11.9,77,30.47,10.0,NNW,3.5,-,N/A,,Clear,330,2014-02-10 10:35:00
4:55 AM,-7.1,-12.1,79,30.47,10.0,NNW,4.6,-,N/A,,Clear,330,2014-02-10 10:55:00
5:15 AM,-6.2,-11.2,79,30.46,10.0,NNW,4.6,-,N/A,,Clear,340,2014-02-10 11:15:00
5:35 AM,-7.1,-12.3,78,30.47,10.0,NW,3.5,-,N/A,,Clear,320,2014-02-10 11:35:00
5:55 AM,-5.4,-9.9,81,30.47,10.0,NW,3.5,-,N/A,,Clear,310,2014-02-10 11:55:00
6:15 AM,-5.6,-11.0,77,30.47,10.0,NNW,3.5,-,N/A,,Clear,330,2014-02-10 12:15:00
6:35 AM,-6.7,-11.6,79,30.48,10.0,Calm,Calm,-,N/A,,Clear,0,2014-02-10 12:35:00
6:55 AM,-5.6,-10.3,80,30.47,10.0,Calm,Calm,-,N/A,,Clear,0,2014-02-10 12:55:00
7:15 AM,-7.2,-12.5,78,30.48,10.0,Calm,Calm,-,N/A,,Clear,0,2014-02-10 13:15:00
7:35 AM,-6.9,-12.1,78,30.48,10.0,Calm,Calm,-,N/A,,Clear,0,2014-02-10 13:35:00
7:55 AM,-7.2,-12.5,78,30.48,10.0,Calm,Calm,-,N/A,,Clear,0,2014-02-10 13:55:00
8:15 AM,-5.4,-10.8,77,30.48,10.0,North,3.5,-,N/A,,Clear,10,2014-02-10 14:15:00
8:35 AM,-3.3,-8.3,79,30.50,10.0,Calm,Calm,-,N/A,,Clear,0,2014-02-10 14:35:00
8:55 AM,-0.6,-6.0,78,30.49,10.0,North,5.8,-,N/A,,Clear,350,2014-02-10 14:55:00
9:15 AM,1.2,-4.7,76,30.50,10.0,NNW,4.6,-,N/A,,Clear,330,2014-02-10 15:15:00
9:35 AM,3.2,-3.3,74,30.50,10.0,Calm,Calm,-,N/A,,Clear,0,2014-02-10 15:35:00
9:55 AM,5.4,-3.5,67,30.50,10.0,NW,3.5,-,N/A,,Scattered Clouds,320,2014-02-10 15:55:00
10:15 AM,6.3,-3.1,65,30.50,10.0,NW,3.5,-,N/A,,Overcast,310,2014-02-10 16:15:00
10:35 AM,6.8,-3.5,63,30.49,10.0,Calm,Calm,-,N/A,,Overcast,0,2014-02-10 16:35:00
10:55 AM,7.5,-2.7,63,30.50,10.0,NNW,3.5,-,N/A,,Overcast,330,2014-02-10 16:55:00
11:15 AM,7.9,-3.5,60,30.49,10.0,NNE,3.5,-,N/A,,Overcast,20,2014-02-10 17:15:00
11:35 AM,8.6,-2.9,60,30.49,10.0,North,3.5,-,N/A,,Overcast,10,2014-02-10 17:35:00
11:55 AM,9.1,-2.9,58,30.48,10.0,North,3.5,-,N/A,,Overcast,10,2014-02-10 17:55:00
12:15 PM,9.5,-2.7,58,30.46,10.0,Calm,Calm,-,N/A,,Overcast,0,2014-02-10 18:15:00
12:35 PM,9.5,-3.1,57,30.45,10.0,Calm,Calm,-,N/A,,Overcast,0,2014-02-10 18:35:00
12:55 PM,10.0,-2.0,58,30.44,10.0,North,3.5,-,N/A,,Overcast,360,2014-02-10 18:55:00
1:15 PM,10.6,-2.2,56,30.44,10.0,North,6.9,-,N/A,,Overcast,360,2014-02-10 19:15:00
1:35 PM,10.6,-2.4,56,30.43,10.0,NNE,5.8,-,N/A,,Overcast,20,2014-02-10 19:35:00
1:55 PM,10.8,-2.4,56,30.43,10.0,North,3.5,-,N/A,,Overcast,10,2014-02-10 19:55:00
2:15 PM,10.9,-2.2,56,30.43,10.0,Calm,Calm,-,N/A,,Overcast,0,2014-02-10 20:15:00
2:35 PM,11.3,-3.5,52,30.42,10.0,Calm,Calm,-,N/A,,Overcast,0,2014-02-10 20:35:00
2:55 PM,11.5,-2.4,54,30.42,10.0,NE,4.6,-,N/A,,Overcast,50,2014-02-10 20:55:00
3:15 PM,11.7,-1.7,55,30.42,10.0,North,4.6,-,N/A,,Overcast,350,2014-02-10 21:15:00
3:35 PM,11.8,-1.5,55,30.43,10.0,Calm,Calm,-,N/A,,Overcast,0,2014-02-10 21:35:00
3:55 PM,11.7,-2.2,54,30.43,10.0,Calm,Calm,-,N/A,,Overcast,0,2014-02-10 21:55:00
4:15 PM,11.8,-2.4,53,30.42,10.0,Calm,Calm,-,N/A,,Overcast,0,2014-02-10 22:15:00
4:35 PM,11.7,-1.7,55,30.41,10.0,NE,3.5,-,N/A,,Mostly Cloudy,40,2014-02-10 22:35:00
4:55 PM,11.3,-2.4,54,30.43,10.0,Calm,Calm,-,N/A,,Clear,0,2014-02-10 22:55:00
5:15 PM,10.8,-2.2,56,30.44,10.0,North,3.5,-,N/A,,Mostly Cloudy,10,2014-02-10 23:15:00
5:35 PM,10.0,-2.0,58,30.44,10.0,Calm,Calm,-,N/A,,Overcast,0,2014-02-10 23:35:00
5:55 PM,10.2,-2.2,57,30.45,10.0,Calm,Calm,-,N/A,,Overcast,0,2014-02-10 23:55:00
6:15 PM,10.0,-2.2,58,30.45,10.0,Calm,Calm,-,N/A,,Mostly Cloudy,0,2014-02-11 00:15:00
6:35 PM,9.5,-2.2,59,30.45,10.0,Calm,Calm,-,N/A,,Clear,0,2014-02-11 00:35:00
6:55 PM,8.6,-2.6,61,30.45,10.0,Calm,Calm,-,N/A,,Clear,0,2014-02-11 00:55:00
7:15 PM,6.3,-3.5,64,30.46,10.0,Calm,Calm,-,N/A,,Clear,0,2014-02-11 01:15:00
7:35 PM,6.1,-2.9,67,30.46,10.0,Calm,Calm,-,N/A,,Clear,0,2014-02-11 01:35:00
7:55 PM,5.9,-3.3,66,30.46,10.0,Calm,Calm,-,N/A,,Clear,0,2014-02-11 01:55:00
8:15 PM,5.2,-3.3,68,30.46,10.0,Calm,Calm,-,N/A,,Clear,0,2014-02-11 02:15:00
8:35 PM,3.4,-4.4,70,30.45,10.0,Calm,Calm,-,N/A,,Clear,0,2014-02-11 02:35:00
8:55 PM,6.6,-2.2,67,30.45,10.0,South,3.5,-,N/A,,Clear,180,2014-02-11 02:55:00
9:15 PM,3.7,-4.0,70,30.44,10.0,South,4.6,-,N/A,,Scattered Clouds,180,2014-02-11 03:15:00
9:35 PM,5.0,-2.6,71,30.45,10.0,Calm,Calm,-,N/A,,Mostly Cloudy,0,2014-02-11 03:35:00
9:55 PM,6.4,-1.5,70,30.45,10.0,Calm,Calm,-,N/A,,Mostly Cloudy,0,2014-02-11 03:55:00
10:15 PM,6.3,-1.3,71,30.46,10.0,Calm,Calm,-,N/A,,Scattered Clouds,0,2014-02-11 04:15:00
10:35 PM,5.0,-2.4,72,30.46,10.0,Calm,Calm,-,N/A,,Mostly Cloudy,0,2014-02-11 04:35:00
10:55 PM,3.6,-4.0,71,30.45,10.0,Calm,Calm,-,N/A,,Mostly Cloudy,0,2014-02-11 04:55:00
11:15 PM,3.4,-4.2,71,30.45,10.0,East,3.5,-,N/A,,Overcast,90,2014-02-11 05:15:00
11:35 PM,1.9,-4.9,73,30.45,10.0,ESE,3.5,-,N/A,,Scattered Clouds,120,2014-02-11 05:35:00
11:55 PM,1.2,-4.9,75,30.44,10.0,ESE,5.8,-,N/A,,Clear,120,2014-02-11 05:55:00